| time (UTC) | temp F | wind direction | speed MPH | gust MPH | rain 1hr in | rain 24hr in | rain mn in | humidity % | barometer mb |
| 20260506211516 | 74 | 273 | 2.0 | 6.0 | 0.00 | 0.02 | 0.02 | 69 | 970.2 |
| 20260506211015 | 75 | 219 | 2.0 | 6.0 | 0.00 | 0.02 | 0.02 | 70 | 970.2 |
| 20260506210515 | 75 | 44 | 2.0 | 6.0 | 0.00 | 0.02 | 0.02 | 69 | 970.2 |
| 20260506210016 | 75 | 271 | 1.0 | 6.0 | 0.00 | 0.02 | 0.02 | 70 | 970.1 |
| 20260506205514 | 75 | 15 | 2.0 | 8.0 | 0.00 | 0.02 | 0.02 | 70 | 970.1 |
| 20260506205015 | 75 | 32 | 3.0 | 8.0 | 0.00 | 0.02 | 0.02 | 70 | 970.0 |
| 20260506204514 | 75 | 270 | 2.0 | 8.0 | 0.00 | 0.02 | 0.02 | 70 | 970.1 |
| 20260506204013 | 75 | 26 | 3.0 | 8.0 | 0.00 | 0.02 | 0.02 | 70 | 970.1 |
| 20260506203513 | 74 | 270 | 2.0 | 10.0 | 0.00 | 0.02 | 0.02 | 70 | 970.0 |
| 20260506203022 | 75 | 360 | 3.0 | 11.0 | 0.00 | 0.02 | 0.02 | 70 | 970.1 |
| 20260506202513 | 75 | 259 | 4.0 | 11.0 | 0.00 | 0.02 | 0.02 | 70 | 970.3 |
| 20260506202012 | 75 | 270 | 2.0 | 8.0 | 0.00 | 0.02 | 0.02 | 71 | 970.2 |
| 20260506201525 | 75 | 21 | 1.0 | 6.0 | 0.00 | 0.02 | 0.02 | 70 | 970.2 |
| 20260506201010 | 75 | 17 | 2.0 | 10.0 | 0.00 | 0.02 | 0.02 | 72 | 970.2 |
| 20260506200510 | 74 | 13 | 3.0 | 10.0 | 0.00 | 0.02 | 0.02 | 72 | 970.1 |
| 20260506200012 | 74 | 182 | 2.0 | 8.0 | 0.00 | 0.02 | 0.02 | 71 | 970.3 |
| 20260506195510 | 74 | 275 | 3.0 | 8.0 | 0.00 | 0.02 | 0.02 | 72 | 970.3 |
| 20260506195011 | 74 | 271 | 2.0 | 8.0 | 0.00 | 0.02 | 0.02 | 72 | 970.2 |
| 20260506194509 | 74 | 15 | 1.0 | 6.0 | 0.00 | 0.02 | 0.02 | 74 | 970.4 |
| 20260506194008 | 73 | 360 | 2.0 | 6.0 | 0.00 | 0.02 | 0.02 | 75 | 970.6 |
| 20260506193507 | 73 | 47 | 1.0 | 5.0 | 0.00 | 0.02 | 0.02 | 76 | 970.6 |
| 20260506193007 | 72 | 268 | 2.0 | 8.0 | 0.00 | 0.02 | 0.02 | 75 | 970.6 |
| 20260506192507 | 73 | 261 | 2.0 | 8.0 | 0.00 | 0.02 | 0.02 | 75 | 970.8 |
| 20260506192006 | 72 | 248 | 1.0 | 4.0 | 0.00 | 0.02 | 0.02 | 76 | 970.8 |
| 20260506191505 | 72 | 5 | 2.0 | 9.0 | 0.00 | 0.02 | 0.02 | 76 | 970.7 |
| 20260506191007 | 72 | 270 | 5.0 | 9.0 | 0.00 | 0.02 | 0.02 | 76 | 970.6 |
| 20260506190507 | 71 | 12 | 2.0 | 11.0 | 0.00 | 0.02 | 0.02 | 77 | 970.7 |
| 20260506190003 | 71 | 34 | 4.0 | 11.0 | 0.00 | 0.02 | 0.02 | 78 | 970.8 |
| 20260506185502 | 70 | 46 | 3.0 | 9.0 | 0.00 | 0.02 | 0.02 | 78 | 970.8 |
| 20260506185002 | 70 | 12 | 2.0 | 9.0 | 0.00 | 0.02 | 0.02 | 79 | 971.0 |
| 20260506184502 | 70 | 273 | 2.0 | 8.0 | 0.00 | 0.02 | 0.02 | 78 | 971.0 |
| 20260506184004 | 70 | 10 | 2.0 | 6.0 | 0.00 | 0.02 | 0.02 | 79 | 970.9 |
| 20260506183501 | 70 | 21 | 2.0 | 7.0 | 0.00 | 0.02 | 0.02 | 79 | 970.8 |
| 20260506183105 | 70 | 242 | 1.0 | 6.0 | 0.00 | 0.02 | 0.02 | 79 | 971.0 |
| 20260506182559 | 69 | 258 | 1.0 | 6.0 | 0.00 | 0.02 | 0.02 | 79 | 970.9 |
| 20260506182059 | 69 | 252 | 2.0 | 6.0 | 0.00 | 0.02 | 0.02 | 80 | 970.8 |
| 20260506181557 | 69 | 28 | 1.0 | 5.0 | 0.00 | 0.02 | 0.02 | 81 | 970.9 |
| 20260506181056 | 68 | 223 | 1.0 | 4.0 | 0.00 | 0.02 | 0.02 | 83 | 971.0 |
| 20260506180555 | 67 | 261 | 1.0 | 4.0 | 0.00 | 0.02 | 0.02 | 83 | 971.1 |
| 20260506180055 | 67 | 259 | 1.0 | 4.0 | 0.00 | 0.02 | 0.02 | 84 | 971.1 |
| 20260506175553 | 67 | 202 | 1.0 | 5.0 | 0.00 | 0.02 | 0.02 | 85 | 971.1 |
| 20260506175053 | 67 | 202 | 2.0 | 5.0 | 0.00 | 0.02 | 0.02 | 85 | 970.3 |
| 20260506174553 | 67 | 18 | 1.0 | 5.0 | 0.00 | 0.02 | 0.02 | 85 | 970.4 |
| 20260506174054 | 66 | 15 | 1.0 | 9.0 | 0.00 | 0.02 | 0.02 | 85 | 970.7 |
| 20260506173556 | 66 | 11 | 2.0 | 7.0 | 0.00 | 0.02 | 0.02 | 85 | 971.2 |
| 20260506173054 | 66 | 16 | 1.0 | 5.0 | 0.00 | 0.02 | 0.02 | 85 | 971.4 |
| 20260506172556 | 66 | 31 | 2.0 | 8.0 | 0.00 | 0.02 | 0.02 | 85 | 971.6 |
| 20260506172052 | 66 | 13 | 3.0 | 8.0 | 0.00 | 0.02 | 0.02 | 85 | 971.8 |
| 20260506171554 | 66 | 360 | 1.0 | 7.0 | 0.00 | 0.02 | 0.02 | 85 | 971.9 |
| 20260506171057 | 67 | 271 | 2.0 | 6.0 | 0.00 | 0.02 | 0.02 | 84 | 972.1 |
| 20260506170552 | 67 | 22 | 2.0 | 8.0 | 0.00 | 0.02 | 0.02 | 84 | 972.1 |
| 20260506170108 | 67 | 22 | 2.0 | 8.0 | 0.00 | 0.02 | 0.02 | 83 | 972.1 |
| 20260506165553 | 67 | 11 | 3.0 | 7.0 | 0.00 | 0.02 | 0.02 | 83 | 972.2 |
| 20260506165051 | 67 | 18 | 0.0 | 5.0 | 0.00 | 0.02 | 0.02 | 82 | 972.3 |
| 20260506164551 | 67 | 22 | 0.0 | 5.0 | 0.00 | 0.02 | 0.02 | 81 | 972.3 |
| 20260506164050 | 67 | 22 | 1.0 | 10.0 | 0.00 | 0.02 | 0.02 | 81 | 972.4 |
| 20260506163553 | 67 | 43 | 2.0 | 10.0 | 0.00 | 0.02 | 0.02 | 80 | 972.4 |
| 20260506163100 | 67 | 270 | 2.0 | 10.0 | 0.00 | 0.02 | 0.02 | 81 | 972.6 |
| 20260506162548 | 67 | 28 | 2.0 | 6.0 | 0.00 | 0.02 | 0.02 | 81 | 972.6 |
| 20260506162049 | 66 | 5 | 2.0 | 6.0 | 0.00 | 0.02 | 0.02 | 80 | 972.6 |
| 20260506161548 | 66 | 271 | 2.0 | 9.0 | 0.00 | 0.02 | 0.02 | 80 | 972.5 |
| 20260506161047 | 66 | 271 | 2.0 | 9.0 | 0.00 | 0.02 | 0.02 | 80 | 972.5 |
| 20260506160548 | 66 | 28 | 1.0 | 5.0 | 0.00 | 0.02 | 0.02 | 80 | 972.5 |
| 20260506160048 | 67 | 15 | 1.0 | 6.0 | 0.00 | 0.02 | 0.02 | 80 | 972.1 |
| 20260506155547 | 67 | 15 | 2.0 | 7.0 | 0.00 | 0.02 | 0.02 | 80 | 972.2 |
| 20260506155051 | 66 | 13 | 1.0 | 8.0 | 0.00 | 0.02 | 0.02 | 81 | 972.2 |
| 20260506154546 | 66 | 271 | 3.0 | 8.0 | 0.00 | 0.02 | 0.02 | 82 | 972.2 |
| 20260506154045 | 66 | 271 | 3.0 | 6.0 | 0.00 | 0.02 | 0.02 | 82 | 972.1 |
| 20260506153544 | 65 | 259 | 1.0 | 6.0 | 0.00 | 0.02 | 0.02 | 83 | 972.0 |
| 20260506153044 | 65 | 184 | 1.0 | 6.0 | 0.00 | 0.02 | 0.02 | 83 | 972.0 |
| 20260506152542 | 65 | 13 | 2.0 | 6.0 | 0.00 | 0.02 | 0.02 | 83 | 972.1 |
| 20260506152042 | 65 | 272 | 1.0 | 6.0 | 0.00 | 0.02 | 0.02 | 83 | 972.1 |
| 20260506151544 | 65 | 252 | 0.0 | 6.0 | 0.00 | 0.02 | 0.02 | 83 | 972.0 |
| 20260506151046 | 65 | 257 | 2.0 | 8.0 | 0.00 | 0.02 | 0.02 | 83 | 972.0 |
| 20260506150542 | 65 | 20 | 3.0 | 8.0 | 0.00 | 0.02 | 0.02 | 84 | 971.9 |
| 20260506150041 | 64 | 275 | 2.0 | 8.0 | 0.00 | 0.02 | 0.02 | 84 | 972.0 |
| 20260506145544 | 64 | 250 | 2.0 | 7.0 | 0.00 | 0.02 | 0.02 | 84 | 972.3 |
| 20260506145042 | 64 | 49 | 1.0 | 5.0 | 0.00 | 0.02 | 0.02 | 85 | 972.5 |
| 20260506144550 | 64 | 360 | 1.0 | 5.0 | 0.01 | 0.02 | 0.02 | 85 | 972.2 |
| 20260506144039 | 64 | 265 | 0.0 | 4.0 | 0.01 | 0.02 | 0.02 | 86 | 972.1 |
| 20260506143539 | 64 | 271 | 1.0 | 4.0 | 0.01 | 0.02 | 0.02 | 87 | 972.1 |
| 20260506143038 | 64 | 271 | 1.0 | 4.0 | 0.01 | 0.02 | 0.02 | 87 | 972.1 |
| 20260506142537 | 63 | 22 | 0.0 | 5.0 | 0.01 | 0.02 | 0.02 | 87 | 972.2 |
| 20260506142035 | 63 | 22 | 2.0 | 5.0 | 0.02 | 0.02 | 0.02 | 87 | 972.4 |
| 20260506141535 | 63 | 179 | 0.0 | 4.0 | 0.02 | 0.02 | 0.02 | 87 | 972.5 |
| 20260506141035 | 63 | 209 | 1.0 | 5.0 | 0.02 | 0.02 | 0.02 | 86 | 972.3 |
| 20260506140537 | 63 | 273 | 0.0 | 4.0 | 0.02 | 0.02 | 0.02 | 87 | 972.1 |
| 20260506140035 | 63 | 273 | 1.0 | 8.0 | 0.02 | 0.02 | 0.02 | 87 | 972.1 |
| 20260506135534 | 62 | 189 | 1.0 | 8.0 | 0.02 | 0.02 | 0.02 | 87 | 972.2 |
| 20260506135034 | 62 | 221 | 1.0 | 5.0 | 0.02 | 0.02 | 0.02 | 87 | 972.4 |
| 20260506134533 | 62 | 30 | 0.0 | 4.0 | 0.01 | 0.01 | 0.01 | 87 | 972.3 |
| 20260506134035 | 63 | 32 | 0.0 | 4.0 | 0.01 | 0.01 | 0.01 | 88 | 972.4 |
| 20260506133534 | 62 | 32 | 0.0 | 3.0 | 0.01 | 0.01 | 0.01 | 87 | 972.2 |
| 20260506133033 | 63 | 32 | 0.0 | 1.0 | 0.01 | 0.01 | 0.01 | 87 | 972.1 |
| 20260506132533 | 63 | 32 | 0.0 | 1.0 | 0.01 | 0.01 | 0.01 | 87 | 972.1 |
| 20260506132037 | 63 | 32 | 0.0 | 0.0 | 0.00 | 0.00 | 0.00 | 86 | 972.0 |
| 20260506131536 | 63 | 32 | 0.0 | 0.0 | 0.00 | 0.00 | 0.00 | 87 | 971.9 |
| 20260506131032 | 63 | 32 | 0.0 | 0.0 | 0.00 | 0.00 | 0.00 | 86 | 972.0 |
| 20260506130533 | 62 | 32 | 0.0 | 0.0 | 0.00 | 0.00 | 0.00 | 86 | 971.9 |
| 20260506130034 | 62 | 32 | 0.0 | 1.0 | 0.00 | 0.00 | 0.00 | 86 | 972.0 |
| 20260506125532 | 62 | 36 | 0.0 | 1.0 | 0.00 | 0.00 | 0.00 | 86 | 971.8 |
| 20260506125032 | 63 | 32 | 0.0 | 0.0 | 0.00 | 0.00 | 0.00 | 86 | 971.8 |
| 20260506124532 | 63 | 32 | 0.0 | 0.0 | 0.00 | 0.00 | 0.00 | 87 | 971.9 |
| 20260506124032 | 62 | 32 | 0.0 | 0.0 | 0.00 | 0.00 | 0.00 | 87 | 971.9 |
| 20260506123532 | 62 | 32 | 0.0 | 0.0 | 0.00 | 0.00 | 0.00 | 87 | 971.9 |
| 20260506123033 | 62 | 32 | 0.0 | 0.0 | 0.00 | 0.00 | 0.00 | 87 | 971.8 |
| 20260506122531 | 62 | 32 | 0.0 | 0.0 | 0.00 | 0.00 | 0.00 | 87 | 971.8 |
| 20260506122031 | 62 | 32 | 0.0 | 0.0 | 0.00 | 0.00 | 0.00 | 87 | 971.7 |
| 20260506121530 | 62 | 32 | 0.0 | 0.0 | 0.00 | 0.00 | 0.00 | 87 | 971.6 |
| 20260506121030 | 61 | 32 | 0.0 | 0.0 | 0.00 | 0.00 | 0.00 | 87 | 971.4 |
| 20260506120530 | 61 | 32 | 0.0 | 0.0 | 0.00 | 0.00 | 0.00 | 87 | 971.4 |
| 20260506120039 | 61 | 32 | 0.0 | 0.0 | 0.00 | 0.00 | 0.00 | 86 | 971.4 |
| 20260506115531 | 61 | 32 | 0.0 | 0.0 | 0.00 | 0.00 | 0.00 | 86 | 971.5 |
| 20260506115028 | 61 | 32 | 0.0 | 0.0 | 0.00 | 0.00 | 0.00 | 85 | 971.4 |
| 20260506114532 | 61 | 32 | 0.0 | 0.0 | 0.00 | 0.00 | 0.00 | 85 | 971.2 |
| 20260506114029 | 61 | 32 | 0.0 | 0.0 | 0.00 | 0.00 | 0.00 | 85 | 971.1 |
| 20260506113528 | 61 | 32 | 0.0 | 0.0 | 0.00 | 0.00 | 0.00 | 84 | 971.1 |
| 20260506113032 | 62 | 32 | 0.0 | 0.0 | 0.00 | 0.00 | 0.00 | 84 | 971.2 |
| 20260506112531 | 62 | 32 | 0.0 | 1.0 | 0.00 | 0.00 | 0.00 | 83 | 971.2 |
| 20260506112027 | 62 | 32 | 0.0 | 1.0 | 0.00 | 0.00 | 0.00 | 82 | 971.1 |
| 20260506111526 | 62 | 32 | 0.0 | 0.0 | 0.00 | 0.00 | 0.00 | 82 | 971.2 |
| 20260506111026 | 62 | 32 | 0.0 | 0.0 | 0.00 | 0.00 | 0.00 | 81 | 971.0 |
| 20260506110526 | 62 | 32 | 0.0 | 0.0 | 0.00 | 0.00 | 0.00 | 80 | 971.1 |
| 20260506110025 | 62 | 32 | 0.0 | 0.0 | 0.00 | 0.00 | 0.00 | 79 | 971.0 |
| 20260506105525 | 62 | 32 | 0.0 | 0.0 | 0.00 | 0.00 | 0.00 | 78 | 971.0 |
| 20260506105025 | 62 | 32 | 0.0 | 1.0 | 0.00 | 0.00 | 0.00 | 78 | 970.9 |
| 20260506104524 | 62 | 32 | 0.0 | 1.0 | 0.00 | 0.00 | 0.00 | 77 | 970.8 |
| 20260506104023 | 62 | 32 | 0.0 | 0.0 | 0.00 | 0.00 | 0.00 | 77 | 970.9 |
| 20260506103523 | 62 | 32 | 0.0 | 1.0 | 0.00 | 0.00 | 0.00 | 77 | 970.6 |
| 20260506103023 | 62 | 32 | 0.0 | 1.0 | 0.00 | 0.00 | 0.00 | 77 | 970.7 |
| 20260506102523 | 63 | 32 | 0.0 | 2.0 | 0.00 | 0.00 | 0.00 | 77 | 970.7 |
| 20260506102022 | 63 | 32 | 0.0 | 2.0 | 0.00 | 0.00 | 0.00 | 77 | 970.6 |
| 20260506101522 | 63 | 32 | 0.0 | 3.0 | 0.00 | 0.00 | 0.00 | 77 | 970.5 |
| 20260506101024 | 63 | 32 | 0.0 | 3.0 | 0.00 | 0.00 | 0.00 | 77 | 970.3 |
| 20260506100524 | 63 | 32 | 0.0 | 1.0 | 0.00 | 0.00 | 0.00 | 76 | 970.5 |
| 20260506100021 | 63 | 32 | 0.0 | 1.0 | 0.00 | 0.00 | 0.00 | 76 | 970.5 |
| 20260506095521 | 63 | 32 | 0.0 | 0.0 | 0.00 | 0.00 | 0.00 | 76 | 970.6 |
| 20260506095020 | 63 | 32 | 0.0 | 2.0 | 0.00 | 0.00 | 0.00 | 75 | 970.8 |
| 20260506094520 | 63 | 32 | 0.0 | 4.0 | 0.00 | 0.00 | 0.00 | 75 | 970.8 |
| 20260506094017 | 63 | 32 | 0.0 | 4.0 | 0.00 | 0.00 | 0.00 | 75 | 970.8 |
| 20260506093522 | 63 | 5 | 0.0 | 4.0 | 0.00 | 0.00 | 0.00 | 75 | 970.8 |
| 20260506093018 | 63 | 5 | 0.0 | 6.0 | 0.00 | 0.00 | 0.00 | 75 | 970.8 |
| 20260506092516 | 63 | 274 | 0.0 | 1.0 | 0.00 | 0.00 | 0.00 | 75 | 970.8 |
| 20260506092016 | 63 | 274 | 0.0 | 2.0 | 0.00 | 0.00 | 0.00 | 75 | 970.9 |
| 20260506091517 | 62 | 274 | 0.0 | 2.0 | 0.00 | 0.00 | 0.00 | 75 | 970.8 |
| 20260506091018 | 62 | 274 | 0.0 | 2.0 | 0.00 | 0.00 | 0.00 | 75 | 970.9 |
| 20260506090515 | 62 | 274 | 0.0 | 2.0 | 0.00 | 0.00 | 0.00 | 75 | 970.9 |
| 20260506090018 | 62 | 274 | 0.0 | 2.0 | 0.00 | 0.00 | 0.00 | 75 | 971.0 |
| 20260506085512 | 62 | 274 | 0.0 | 0.0 | 0.00 | 0.00 | 0.00 | 75 | 970.9 |
| 20260506085013 | 62 | 274 | 0.0 | 1.0 | 0.00 | 0.00 | 0.00 | 75 | 971.1 |
| 20260506084512 | 62 | 274 | 0.0 | 1.0 | 0.00 | 0.00 | 0.00 | 74 | 971.2 |
| 20260506084015 | 62 | 274 | 0.0 | 1.0 | 0.00 | 0.00 | 0.00 | 74 | 971.1 |
| 20260506083512 | 62 | 274 | 0.0 | 1.0 | 0.00 | 0.00 | 0.00 | 74 | 971.0 |
| 20260506083013 | 62 | 274 | 0.0 | 1.0 | 0.00 | 0.00 | 0.00 | 74 | 971.0 |
| 20260506082512 | 62 | 274 | 0.0 | 2.0 | 0.00 | 0.00 | 0.00 | 74 | 971.1 |
| 20260506082011 | 62 | 274 | 0.0 | 3.0 | 0.00 | 0.00 | 0.00 | 74 | 971.3 |
| 20260506081508 | 61 | 274 | 0.0 | 3.0 | 0.00 | 0.00 | 0.00 | 75 | 971.3 |
| 20260506081007 | 61 | 274 | 0.0 | 2.0 | 0.00 | 0.00 | 0.00 | 75 | 971.1 |
| 20260506080507 | 60 | 274 | 0.0 | 3.0 | 0.00 | 0.00 | 0.00 | 75 | 971.2 |
| 20260506073504 | 59 | 22 | 1.0 | 3.0 | 0.00 | 0.00 | 0.00 | 76 | 971.0 |
| 20260506073004 | 59 | 22 | 0.0 | 2.0 | 0.00 | 0.00 | 0.00 | 76 | 971.1 |
| 20260506072506 | 59 | 22 | 0.0 | 2.0 | 0.00 | 0.00 | 0.00 | 76 | 971.3 |
| 20260506072003 | 59 | 22 | 0.0 | 4.0 | 0.00 | 0.00 | 0.00 | 75 | 971.3 |
| 20260506071502 | 60 | 22 | 1.0 | 4.0 | 0.00 | 0.00 | 0.00 | 75 | 971.1 |
| 20260506071100 | 60 | 22 | 0.0 | 3.0 | 0.00 | 0.00 | 0.00 | 75 | 971.3 |
| 20260506070600 | 60 | 22 | 0.0 | 3.0 | 0.00 | 0.00 | 0.00 | 75 | 971.5 |
| 20260506062057 | 59 | 22 | 0.0 | 3.0 | 0.00 | 0.00 | 0.00 | 75 | 971.7 |
| 20260506061601 | 59 | 22 | 0.0 | 3.0 | 0.00 | 0.00 | 0.00 | 75 | 971.8 |
| 20260506061055 | 59 | 22 | 0.0 | 3.0 | 0.00 | 0.00 | 0.00 | 75 | 971.8 |
| 20260506060555 | 59 | 22 | 0.0 | 2.0 | 0.00 | 0.00 | 0.00 | 75 | 971.8 |
| 20260506051048 | 59 | 22 | 0.0 | 2.0 | 0.00 | 0.00 | 0.00 | 73 | 972.1 |
| 20260506050547 | 59 | 22 | 0.0 | 2.0 | 0.00 | 0.00 | 0.00 | 73 | 972.3 |
| 20260506050104 | 59 | 22 | 0.0 | 1.0 | 0.00 | 0.00 | 0.00 | 73 | 972.3 |
| 20260506045046 | 59 | 22 | 0.0 | 2.0 | 0.00 | 0.00 | 0.00 | 73 | 972.4 |
| 20260506044550 | 59 | 22 | 0.0 | 2.0 | 0.00 | 0.00 | 0.00 | 73 | 972.5 |
| 20260506044044 | 59 | 22 | 0.0 | 0.0 | 0.00 | 0.00 | 0.00 | 72 | 972.4 |
| 20260506043544 | 59 | 22 | 0.0 | 2.0 | 0.00 | 0.00 | 0.00 | 71 | 972.4 |
| 20260506043044 | 60 | 22 | 0.0 | 2.0 | 0.00 | 0.00 | 0.00 | 71 | 972.4 |
| 20260506042543 | 60 | 22 | 0.0 | 2.0 | 0.00 | 0.00 | 0.00 | 71 | 972.4 |
| 20260506042043 | 60 | 22 | 0.0 | 2.0 | 0.00 | 0.00 | 0.00 | 70 | 972.5 |
| 20260506041542 | 60 | 22 | 0.0 | 3.0 | 0.00 | 0.00 | 0.00 | 70 | 972.5 |
| 20260506041041 | 60 | 22 | 0.0 | 3.0 | 0.00 | 0.00 | 0.00 | 70 | 972.6 |
| 20260506040540 | 60 | 22 | 0.0 | 3.0 | 0.00 | 0.00 | 0.00 | 70 | 972.5 |
| 20260506040042 | 60 | 22 | 0.0 | 3.0 | 0.00 | 0.00 | 0.00 | 70 | 972.5 |
| 20260506035540 | 60 | 22 | 0.0 | 3.0 | 0.00 | 0.00 | 0.00 | 70 | 972.5 |
| 20260506035038 | 60 | 22 | 0.0 | 3.0 | 0.00 | 0.00 | 0.00 | 70 | 972.5 |
| 20260506034542 | 60 | 22 | 1.0 | 2.0 | 0.00 | 0.00 | 0.00 | 70 | 972.6 |
| 20260506034037 | 60 | 23 | 0.0 | 1.0 | 0.00 | 0.00 | 0.00 | 69 | 972.4 |
| 20260506033537 | 60 | 22 | 0.0 | 3.0 | 0.00 | 0.00 | 0.00 | 69 | 972.3 |
| 20260506033041 | 60 | 22 | 0.0 | 3.0 | 0.00 | 0.00 | 0.00 | 69 | 972.5 |
| 20260506032537 | 60 | 22 | 0.0 | 0.0 | 0.00 | 0.00 | 0.00 | 68 | 972.5 |
| 20260506032037 | 61 | 22 | 0.0 | 2.0 | 0.00 | 0.00 | 0.00 | 67 | 972.5 |
| 20260506031545 | 61 | 22 | 0.0 | 2.0 | 0.00 | 0.00 | 0.00 | 67 | 972.5 |
| 20260506031035 | 61 | 22 | 0.0 | 2.0 | 0.00 | 0.00 | 0.00 | 66 | 972.6 |
| 20260506030537 | 61 | 22 | 0.0 | 3.0 | 0.00 | 0.00 | 0.00 | 66 | 972.7 |
| 20260506030041 | 62 | 22 | 1.0 | 3.0 | 0.00 | 0.00 | 0.00 | 66 | 972.7 |
| 20260506025536 | 62 | 23 | 0.0 | 2.0 | 0.00 | 0.00 | 0.00 | 66 | 972.8 |
| 20260506025036 | 62 | 23 | 0.0 | 3.0 | 0.00 | 0.00 | 0.00 | 65 | 972.8 |
| 20260506024543 | 62 | 23 | 1.0 | 3.0 | 0.00 | 0.00 | 0.00 | 65 | 972.7 |
| 20260506024036 | 62 | 23 | 0.0 | 2.0 | 0.00 | 0.00 | 0.00 | 65 | 972.8 |
| 20260506023541 | 62 | 23 | 0.0 | 3.0 | 0.00 | 0.00 | 0.00 | 64 | 972.9 |
| 20260506023036 | 63 | 23 | 1.0 | 3.0 | 0.00 | 0.00 | 0.00 | 63 | 972.9 |
| 20260506022535 | 63 | 23 | 0.0 | 2.0 | 0.00 | 0.00 | 0.00 | 64 | 972.9 |
| 20260506022035 | 63 | 23 | 0.0 | 1.0 | 0.00 | 0.00 | 0.00 | 64 | 972.9 |
| 20260506021538 | 63 | 23 | 0.0 | 1.0 | 0.00 | 0.00 | 0.00 | 64 | 973.0 |
| 20260506021035 | 63 | 23 | 0.0 | 1.0 | 0.00 | 0.00 | 0.00 | 64 | 973.0 |
| 20260506020534 | 63 | 23 | 0.0 | 2.0 | 0.00 | 0.00 | 0.00 | 64 | 972.9 |
| 20260506020034 | 63 | 23 | 0.0 | 2.0 | 0.00 | 0.00 | 0.00 | 62 | 972.9 |
| 20260506015534 | 63 | 23 | 0.0 | 2.0 | 0.00 | 0.00 | 0.00 | 63 | 972.9 |
| 20260506015034 | 63 | 23 | 0.0 | 0.0 | 0.00 | 0.00 | 0.00 | 62 | 972.9 |
| 20260506014533 | 64 | 23 | 0.0 | 0.0 | 0.00 | 0.00 | 0.00 | 62 | 972.9 |
| 20260506014033 | 64 | 23 | 0.0 | 0.0 | 0.00 | 0.00 | 0.00 | 61 | 972.9 |
| 20260506013533 | 64 | 23 | 0.0 | 0.0 | 0.00 | 0.00 | 0.00 | 60 | 972.9 |
| 20260506013034 | 64 | 23 | 0.0 | 0.0 | 0.00 | 0.00 | 0.00 | 59 | 972.9 |
| 20260506012534 | 65 | 23 | 0.0 | 0.0 | 0.00 | 0.00 | 0.00 | 59 | 972.8 |
| 20260506012033 | 65 | 23 | 0.0 | 0.0 | 0.00 | 0.00 | 0.00 | 58 | 972.9 |
| 20260506011537 | 66 | 23 | 0.0 | 0.0 | 0.00 | 0.00 | 0.00 | 58 | 972.8 |
| 20260506011033 | 66 | 23 | 0.0 | 0.0 | 0.00 | 0.00 | 0.00 | 57 | 972.7 |
| 20260506010533 | 66 | 23 | 0.0 | 0.0 | 0.00 | 0.00 | 0.00 | 56 | 972.7 |
| 20260506010034 | 67 | 23 | 0.0 | 0.0 | 0.00 | 0.00 | 0.00 | 55 | 972.7 |
| 20260506005531 | 68 | 23 | 0.0 | 0.0 | 0.00 | 0.00 | 0.00 | 54 | 972.6 |
| 20260506005031 | 69 | 23 | 0.0 | 0.0 | 0.00 | 0.00 | 0.00 | 52 | 972.7 |
| 20260506004534 | 70 | 23 | 0.0 | 1.0 | 0.00 | 0.00 | 0.00 | 51 | 972.6 |
| 20260506004033 | 71 | 23 | 0.0 | 2.0 | 0.00 | 0.00 | 0.00 | 49 | 972.5 |
| 20260506003532 | 71 | 23 | 0.0 | 5.0 | 0.00 | 0.00 | 0.00 | 47 | 972.5 |
| 20260506003032 | 71 | 23 | 1.0 | 5.0 | 0.00 | 0.00 | 0.00 | 46 | 972.4 |
| 20260506002531 | 71 | 44 | 0.0 | 2.0 | 0.00 | 0.00 | 0.00 | 47 | 972.2 |
| 20260506002031 | 72 | 44 | 0.0 | 2.0 | 0.00 | 0.00 | 0.00 | 46 | 972.4 |
| 20260506001533 | 72 | 44 | 0.0 | 3.0 | 0.00 | 0.00 | 0.00 | 45 | 972.4 |
| 20260506001031 | 73 | 44 | 0.0 | 5.0 | 0.00 | 0.00 | 0.00 | 44 | 972.4 |
| 20260506000531 | 73 | 224 | 1.0 | 4.0 | 0.00 | 0.00 | 0.00 | 43 | 972.4 |
| 20260506000038 | 74 | 14 | 0.0 | 4.0 | 0.00 | 0.00 | 0.00 | 44 | 972.4 |
| 20260505235533 | 74 | 17 | 0.0 | 2.0 | 0.00 | 0.00 | 0.00 | 44 | 972.3 |
| 20260505235030 | 74 | 17 | 0.0 | 5.0 | 0.00 | 0.00 | 0.00 | 42 | 972.2 |
| 20260505234530 | 75 | 17 | 1.0 | 8.0 | 0.00 | 0.00 | 0.00 | 40 | 972.2 |
| 20260505234030 | 75 | 15 | 1.0 | 8.0 | 0.00 | 0.00 | 0.00 | 40 | 972.1 |
| 20260505233529 | 75 | 15 | 2.0 | 6.0 | 0.00 | 0.00 | 0.00 | 40 | 972.1 |
| 20260505233030 | 75 | 41 | 2.0 | 6.0 | 0.00 | 0.00 | 0.00 | 39 | 972.0 |
| 20260505232531 | 75 | 15 | 1.0 | 7.0 | 0.00 | 0.00 | 0.00 | 40 | 972.0 |
| 20260505232036 | 75 | 54 | 1.0 | 15.0 | 0.00 | 0.00 | 0.00 | 38 | 971.9 |
| 20260505231533 | 76 | 270 | 4.0 | 15.0 | 0.00 | 0.00 | 0.00 | 37 | 971.9 |
| 20260505231028 | 76 | 266 | 3.0 | 8.0 | 0.00 | 0.00 | 0.00 | 37 | 971.9 |
| 20260505230528 | 76 | 87 | 2.0 | 9.0 | 0.00 | 0.00 | 0.00 | 36 | 971.9 |
| 20260505230035 | 76 | 25 | 3.0 | 10.0 | 0.00 | 0.00 | 0.00 | 35 | 971.8 |
| 20260505225529 | 76 | 34 | 3.0 | 11.0 | 0.00 | 0.00 | 0.00 | 36 | 971.9 |
| 20260505225029 | 76 | 27 | 3.0 | 11.0 | 0.00 | 0.00 | 0.00 | 35 | 972.0 |
| 20260505224529 | 76 | 15 | 3.0 | 10.0 | 0.00 | 0.00 | 0.00 | 35 | 971.9 |
| 20260505224029 | 77 | 113 | 3.0 | 10.0 | 0.00 | 0.00 | 0.00 | 35 | 971.9 |
| 20260505223528 | 77 | 41 | 2.0 | 6.0 | 0.00 | 0.00 | 0.00 | 35 | 971.9 |
| 20260505223034 | 78 | 18 | 2.0 | 10.0 | 0.00 | 0.00 | 0.00 | 34 | 971.8 |
| 20260505222528 | 78 | 40 | 4.0 | 11.0 | 0.00 | 0.00 | 0.00 | 34 | 972.0 |
| 20260505222028 | 78 | 5 | 5.0 | 11.0 | 0.00 | 0.00 | 0.00 | 36 | 971.9 |
| 20260505221527 | 77 | 22 | 4.0 | 11.0 | 0.00 | 0.00 | 0.00 | 36 | 971.9 |
| 20260505221026 | 78 | 77 | 2.0 | 9.0 | 0.00 | 0.00 | 0.00 | 35 | 971.9 |
| 20260505220526 | 78 | 16 | 2.0 | 12.0 | 0.00 | 0.00 | 0.00 | 34 | 972.0 |
| 20260505220028 | 78 | 5 | 3.0 | 12.0 | 0.00 | 0.00 | 0.00 | 34 | 972.1 |
| 20260505215527 | 79 | 24 | 3.0 | 15.0 | 0.00 | 0.00 | 0.00 | 33 | 972.0 |
| 20260505215027 | 79 | 36 | 4.0 | 15.0 | 0.00 | 0.00 | 0.00 | 32 | 972.0 |
| 20260505214534 | 79 | 5 | 3.0 | 9.0 | 0.00 | 0.00 | 0.00 | 33 | 971.9 |
| 20260505214031 | 79 | 271 | 1.0 | 6.0 | 0.00 | 0.00 | 0.00 | 36 | 971.9 |
| 20260505213526 | 79 | 46 | 3.0 | 6.0 | 0.00 | 0.00 | 0.00 | 34 | 972.0 |
| 20260505213026 | 79 | 56 | 1.0 | 11.0 | 0.00 | 0.00 | 0.00 | 36 | 972.0 |
| 20260505212526 | 79 | 24 | 2.0 | 11.0 | 0.00 | 0.00 | 0.00 | 34 | 972.0 |
| 20260505212029 | 79 | 271 | 3.0 | 10.0 | 0.00 | 0.00 | 0.00 | 34 | 972.1 |